Regional Weather Roundup
Issued by NWS Columbia, SC

Home | Current Version | Previous Version | Text Only | Print | Product List | Glossary On
Versions: 1 2 3 4 5 6 7 8 9 10 11 12 13 14 15 16 17 18 19 20 21 22 23 24 25 26 27
000
ASUS42 KCAE 250610
RWRCAE
REGIONAL WEATHER ROUNDUP
NATIONAL WEATHER SERVICE COLUMBIA SC
200 AM EDT TUE JUL 25 2017

NOTE: "FAIR" INDICATES FEW OR NO CLOUDS BELOW 12,000 FEET WITH NO
SIGNIFICANT WEATHER AND/OR OBSTRUCTIONS TO VISIBILITY.

NOT ALL STATIONS ARE QUALITY CONTROLLED BY THE NATIONAL
WEATHER SERVICE. USE DATA WITH CAUTION...ESPECIALLY
DEWPOINT OBSERVATIONS.

SCZ001>056-GAZ040-063>065-077-250700-
...UPSTATE SOUTH CAROLINA...

CITY           SKY/WX    TMP DP  RH WIND       PRES   REMARKS
ANDERSON       PTCLDY    76  72  87 W3        30.02F
6HR MIN TEMP:  76; 6HR MAX TEMP:  85;

LIBERTY        PTCLDY    71  70  99 CALM      30.03S
6HR MIN TEMP:  71; 6HR MAX TEMP:  84;

SPARTANBURG    MOCLDY    73  72  94 CALM      30.01S
CLEMSON        PTCLDY    75  71  87 W6        30.03F
6HR MIN TEMP:  74; 6HR MAX TEMP:  85;

GREENVILLE     MOCLDY    79  72  79 W5        30.04R
6HR MIN TEMP:  79; 6HR MAX TEMP:  88;

GREENWOOD      MOCLDY    74  72  93 SW5       30.03S
6HR MIN TEMP:  74; 6HR MAX TEMP:  83;

GREER          MOCLDY    76  74  93 CALM      30.01F
6HR MIN TEMP:  76; 6HR MAX TEMP:  83;

ROCK HILL      PTCLDY    74  73  97 SW3       30.02S
6HR MIN TEMP:  74; 6HR MAX TEMP:  84;

LAURENS        CLOUDY    73  73 100 CALM      30.02S


...CENTRAL SOUTH CAROLINA...

CITY           SKY/WX    TMP DP  RH WIND       PRES   REMARKS
COLUMBIA APT   CLEAR     75  73  93 S3        29.99F
6HR MIN TEMP:  75; 6HR MAX TEMP:  79;

COLUMBIA OWENS PTCLDY    75  74  96 CALM      30.01S
6HR MIN TEMP:  75; 6HR MAX TEMP:  80;

MCENTIRE ANGB  PTCLDY    72  72 100 CALM      30.00S
6HR MIN TEMP:  72; 6HR MAX TEMP:  75;

ORANGEBURG     CLOUDY    73  72  96 CALM      30.01R
6HR MIN TEMP:  73; 6HR MAX TEMP:  74;

SUMTER SHAW    PTCLDY    73  71  93 S6        29.98S
6HR MIN TEMP:  73; 6HR MAX TEMP:  76;

NEWBERRY       CLOUDY    73  72  94 CALM      30.04S
AIKEN          FAIR      72  72 100 W6        30.04F
BARNWELL       FAIR      75  75 100 CALM      30.01S
MANNING        FAIR      73  73 100 SW12      30.01R
CAMDEN         CLOUDY    73  72  94 CALM      30.00F
LANCASTER      CLOUDY    73  73 100 S3        30.01F
WINNSBORO      PTCLDY    73  72  94 CALM      30.00F


...EASTERN AND COASTAL SOUTH CAROLINA...

CITY           SKY/WX    TMP DP  RH WIND       PRES   REMARKS
MYRTLE BEACH   PTCLDY    75  73  93 SW6       30.03R
6HR MIN TEMP:  75; 6HR MAX TEMP:  83; 6HR PCP:  0.08;

N MYRTLE BCH   CLOUDY    75  73  93 W5        30.01R
6HR MIN TEMP:  74; 6HR MAX TEMP:  78; 6HR PCP:  0.04;

CONWAY         MOCLDY    72  72 100 CALM      30.02R FOG
MARION         MOCLDY    72  70  94 S5          N/A
HARTSVILLE     FAIR      70  70 100 CALM      30.00S
FLORENCE       PTCLDY    73  73 100 S3        30.00S
6HR MIN TEMP:  73; 6HR MAX TEMP:  76; 6HR PCP: TRACE;

DARLINGTON     MOCLDY    73  72  96 SW5       30.00S
6HR MIN TEMP:  73; 6HR MAX TEMP:  78;

CHARLESTON APT CLOUDY    77  74  90 SW7       30.00S
6HR MIN TEMP:  73; 6HR MAX TEMP:  77; 6HR PCP:  1.51;

MOUNT PLEASANT FAIR      73  73 100 CALM      30.00S FOG
WALTERBORO     PTCLDY    73  72  94 CALM      30.01S
BEAUFORT       CLOUDY    77  77 100 SW5       30.00F
6HR MIN TEMP:  71; 6HR MAX TEMP:  79; 6HR PCP:  1.15;



...EASTERN GEORGIA...

CITY           SKY/WX    TMP DP  RH WIND       PRES   REMARKS
AUGUSTA BUSH F CLEAR     75  72  90 CALM      30.00S
6HR MIN TEMP:  74; 6HR MAX TEMP:  79; 6HR PCP:  0.01;

AUGUSTA DANIEL PTCLDY    76  70  82 NW6       30.01F
6HR MIN TEMP:  75; 6HR MAX TEMP:  78;

THOMSON        CLOUDY    72  71  96 CALM      30.07S
6HR MIN TEMP:  72; 6HR MAX TEMP:  77;

WASHINGTON     FAIR     N/A N/A N/A W5        30.02F
CLAXTON        FAIR      78  76  93 CALM      30.02R
6HR MIN TEMP:  78; 6HR MAX TEMP:  82;

SYLVANIA       MOCLDY    76  76 100 CALM      30.02S
6HR MIN TEMP:  75; 6HR MAX TEMP:  80;

STATESBORO     PTCLDY    77  77 100 CALM      30.01S
6HR MIN TEMP:  77; 6HR MAX TEMP:  83;

SAVANNAH       CLOUDY   N/A N/A N/A SW5       30.02F
                                      6HR PCP:  0.08;



...SOUTHERN NORTH CAROLINA...

CITY           SKY/WX    TMP DP  RH WIND       PRES   REMARKS
CHARLOTTE      MOCLDY    77  73  87 SW3       30.02R
6HR MIN TEMP:  77; 6HR MAX TEMP:  86;

MONROE         CLOUDY    74  71  91 SW6       30.01R
6HR MIN TEMP:  74; 6HR MAX TEMP:  82;

ROCKINGHAM     MOCLDY    73  73 100 S3        30.00R
RUTHERFORDTON  PTCLDY    72  72 100 CALM      30.05R
ASHEVILLE      CLEAR     69  68  96 CALM      30.12R
6HR MIN TEMP:  69; 6HR MAX TEMP:  82;


$$




USA.gov is the U.S. government's official web portal to all federal, state and local government web resources and services.